Retour au catalogue

STARLINK-32411

ActifCommunicationsVLEO
NORAD 61547·PAYLOAD·🇺🇸 United States

Lancé Oct 15, 2024 depuis Vandenberg Space Force Base

Loading…

Prochains Passages (prochaines 24 heures)

TLE

FraisSource: CelesTrak SupGP

Époque: Sep 14, 2026, 20:49 UTC

1 61547C 24184R   26257.86784722  .00040662  00000+0  12013-2 0  2571
2 61547  53.1586 212.3714 0001341  91.9301 183.0544 15.34372714    18

Suivez STARLINK-32411 en temps réel avec AllMySat

Download on the App Store